Location: Henry Coe State Park
(37.1875°N, 121.5503°W)
Time: 07:02:28
(UTC-08:00)

Daily predictions for brighter satellites

Satellite Brightness Start Highest point End
(mag) Time Altitude Azimuth Time Altitude Azimuth Time Altitude Azimuth
Cosmos 540 Rocket 4.0 17:38:18 10° S 17:43:05 40° ESE 17:47:53 10° NNE
Cosmos 44 3.7 17:40:39 10° S 17:45:47 51° ESE 17:50:43 10° NE
Milstar 3 3.9 17:43:10 10° WSW 17:49:41 39° S 17:56:01 10° ESE
CORIOLIS 4.2 17:46:24 10° SSE 17:51:44 87° WSW 17:57:08 10° NNW
Cosmos 2333 Rocket 2.2 17:48:59 10° SSW 17:54:36 74° ESE 18:00:15 10° NNE
YAOGAN 1 2.9 17:53:02 10° S 17:57:20 71° WSW 18:01:40 10° NNW
CZ-4 R/B 4.4 17:53:32 10° SSE 17:57:41 88° ENE 18:01:51 10° NNW
USA 215 3.8 17:51:54 10° E 17:57:49 38° NNE 18:03:44 10° NNW
Cosmos 371 Rocket 3.3 17:53:15 10° SSW 17:58:04 90° ENE 18:02:53 10° NNE
COSMO-SKYMED 1 2.7 17:54:35 10° NNE 17:58:53 56° E 18:03:07 10° S
Cosmos 2058 3.5 17:55:25 10° SSE 17:59:08 34° E 18:02:52 10° NNE
Cosmos 2219 Rocket 2.5 17:58:01 10° SSW 18:03:39 72° WNW 18:09:17 10° NNE
Haruka 4.0 18:01:25 10° SW 18:04:58 43° SSE 18:13:49 10° E
Atlas Centaur 2 4.1 18:03:08 10° WSW 18:06:58 19° SSW 18:10:16 10° SSE
SMAP 4.2 18:02:54 10° S 18:07:22 48° W 18:11:53 10° NNW
Cosmos 1626 3.7 18:05:10 10° SE 18:07:36 17° E 18:08:48 15° ENE
SPOT 3 Rocket 4.3 18:02:41 10° S 18:07:44 59° WSW 18:12:50 10° NNW
Cosmos 2228 Rocket 3.9 18:04:45 10° NNW 18:09:05 56° W 18:13:25 10° S
Thor Agena Rocket 4.3 18:04:12 10° N 18:09:19 55° WNW 18:14:21 10° SSW
Cosmos 1125 Rocket 3.5 18:04:33 10° N 18:09:42 61° ENE 18:14:49 10° SSE
Cosmos 1340 Rocket 3.3 18:08:29 10° SSE 18:12:09 37° E 18:15:47 10° NNE
Cosmos 2278 Rocket 2.3 18:07:48 10° NNW 18:13:24 55° ENE 18:18:56 10° SE
Meteor 1-27 4.4 18:11:56 10° N 18:17:38 54° ENE 18:23:19 10° SSE
SL-14 R/B 3.2 18:14:13 10° S 18:18:07 86° E 18:22:06 10° N
Cosmos 44 Rocket 4.2 18:13:23 10° SW 18:18:23 51° NW 18:23:19 10° NNE
NOAA 12 4.3 18:15:24 10° SE 18:20:22 46° ENE 18:25:22 10° N
Cosmos 2279 Rocket 4.0 18:16:10 10° N 18:22:18 60° E 18:28:25 10° SSE
Cosmos 1356 Rocket 4.3 18:19:06 10° SSE 18:22:23 25° E 18:23:49 20° ENE
Cosmos 1484 Rocket 3.2 18:18:40 10° S 18:22:32 66° W 18:26:30 10° NNW
Cosmos 1844 4.2 18:19:22 10° NNW 18:25:07 67° WSW 18:30:50 10° S
Cosmos 1726 2.3 18:22:40 10° N 18:26:26 78° W 18:30:12 10° S
Cosmos 2151 3.3 18:26:41 10° SSW 18:30:52 66° W 18:35:02 10° N
Cosmos 1300 3.0 18:27:10 10° NNW 18:30:58 71° W 18:34:47 10° S
H-2A ROCKET BODY 4.1 18:01:24 10° WSW 18:33:46 52° S 18:39:02 16° ESE
Cosmos 2237 Rocket 2.6 18:30:25 10° SSW 18:35:59 65° WNW 18:41:36 10° NNE
Aureole 2 Rocket 2.6 18:34:10 10° SSW 18:37:45 81° WNW 18:41:14 13° NNE
CENTAUR R/B 4.3 18:33:39 10° W 18:38:42 25° NW 18:44:15 10° NNE
Intelsat 5-1 Rocket 4.3 18:38:56 10° S 18:39:58 11° SSE 18:41:11 10° SSE
Nadezhda 4 Rocket 4.2 18:34:19 10° SSE 18:40:15 48° E 18:46:15 10° NNE
Hubble Space Telescope 3.7 18:40:10 10° SSW 18:41:04 11° SSW 18:41:57 10° S
Cosmos 304 Rocket 3.7 18:36:37 10° S 18:41:24 71° ESE 18:45:19 15° NNE
SL-16 R/B 2.2 18:35:54 10° S 18:41:25 58° ESE 18:45:34 18° NE
Abrixas 3.0 18:39:14 10° WSW 18:42:05 49° NNW 18:42:45 39° NNE
Cosmos 2180 Rocket 4.4 18:36:38 10° N 18:42:48 72° E 18:48:59 10° SSE
Aureole 1 Rocket 4.4 18:38:34 10° SSE 18:42:52 30° E 18:44:10 27° ENE
Iridium 4 Rocket 4.2 18:40:05 10° SE 18:43:00 26° ESE 18:43:00 26° ESE
Cosmos 1805 Rocket 3.5 18:43:16 10° S 18:47:42 80° E 18:52:11 10° N
Cosmos 1151 Rocket 4.3 18:43:43 10° NNW 18:47:45 42° W 18:51:48 10° SSW
Lacrosse 5 rocket 1.3 18:47:48 10° NNW 18:51:33 50° NE 18:51:53 48° ENE
Timation 1 Rocket 4.3 18:47:20 10° NNW 18:53:19 62° ENE 18:59:15 10° SE
Cosmos 2297 3.7 18:48:09 10° NNW 18:53:45 56° ENE 18:59:21 10° SE
Cosmos 1092 Rocket 4.2 18:52:38 10° SSE 18:58:39 48° E 19:04:42 10° NNE
BREEZE-M DEB (TANK) 3.8 19:04:13 10° W 19:05:55 25° NW 19:05:55 25° NW
Sich 1 3.0 19:04:50 10° S 19:09:17 89° E 19:11:18 32° N
OTV 4 2.3 19:10:12 10° W 19:12:19 29° SW 19:12:19 29° SW
Cosmos 773 Rocket 3.9 19:08:17 10° S 19:13:20 61° ESE 19:13:43 59° E
Cosmos 1633 Rocket 2.9 19:09:34 10° S 19:13:59 88° ESE 19:14:58 54° N
SJ-6B 3.8 19:14:19 10° S 19:18:13 48° W 19:22:13 10° NNW
ALOS 2.2 19:19:49 10° SSE 19:24:29 86° WSW 19:29:11 10° NNW
FengYun 1-2 T 4.1 19:19:30 10° SSE 19:25:05 87° WSW 19:30:40 10° NNW
CZ-3A R/B 2.8 19:20:37 10° NW 19:25:08 68° NE 19:26:00 58° E
FENGYUN 3A 3.5 19:21:55 10° SSE 19:27:16 88° WSW 19:32:40 10° NNW
Resurs 01 Rocket 2.7 19:32:40 37° NNW 19:32:40 37° NNW 19:35:23 10° NNW
Cosmos 1461 3.9 19:27:06 10° SW 19:31:06 42° NW 19:31:19 41° NW
USA 215 3.5 19:36:43 26° SSE 19:40:32 64° SW 19:47:03 10° NW
Cosmos 1626 4.3 19:39:39 10° SW 19:42:45 24° WNW 19:43:34 22° NW
Cosmos 1603 4.4 19:40:05 10° SSW 19:43:42 41° S 19:43:42 41° S
Spot 2 Rocket 4.4 19:51:29 10° S 19:56:19 46° W 20:01:10 10° NNW
USA 229 DEB 4.3 20:18:21 10° SW 20:24:30 52° WNW 20:24:30 52° WNW
USA 229 4.3 20:18:27 10° SW 20:24:33 52° WNW 20:24:33 52° WNW
SL-16 R/B 4.4 20:21:55 10° W 20:25:56 19° NW 20:27:31 17° NNW
